Wind_Speed
24 24 30 30 28 29 30 44 40 37 40 37 41 39 36 35 32 29 26 25 22 21 18 21 19 16 12 11 9 10 9 12 10 9 11 10 11 10 14 9 8 8 8
18 19 19 27 25 27 34 37 42 34 36 37 42 38 36 32 32 31 31 27 26 23 21 21 20 17 17 13 10 11 10 11 11 8 14 13 15 14 16 15 13 9 10
15 17 19 21 24 26 31 36 44 40 35 39 41 42 38 35 32 32 30 27 25 25 22 20 19 17 16 13 11 13 11 9 8 14 18 16 15 12 14 16 15 9 8
9 17 18 15 21 29 34 45 36 34 29 40 37 37 33 36 36 33 29 29 27 24 20 19 18 17 17 15 13 13 11 7 7 23 16 13 12 12 13 13 10 13 9
21 17 17 14 16 21 34 43 44 32 39 39 38 33 33 33 33 36 35 32 29 26 23 21 19 16 16 14 14 12 11 13 25 21 17 16 12 10 11 12 9 2 11
28 21 22 17 12 21 27 40 38 37 35 37 36 35 35 30 31 33 36 34 32 30 28 24 22 18 16 15 13 11 11 19 21 21 16 15 10 8 10 12 8 9 5
26 25 23 25 9 11 27 35 38 38 40 41 39 37 36 30 31 33 35 35 34 30 28 25 23 19 17 17 17 17 14 13 12 13 18 13 12 11 11 15 18 19 14
24 24 23 23 18 17 24 30 34 35 36 35 34 34 41 34 33 35 36 34 31 28 25 23 25 24 22 22 22 20 18 16 16 20 20 18 15 14 14 14 16 16 16
21 24 26 24 27 21 20 28 30 31 32 36 41 39 37 30 37 38 36 33 31 26 27 23 26 26 25 22 23 23 22 22 20 20 19 18 17 16 13 9 17 13 9
21 24 27 27 28 24 19 32 33 33 34 37 37 41 40 40 40 40 37 34 33 29 26 30 25 26 22 21 19 25 23 20 19 17 15 15 17 17 18 20 19 20 7
25 27 30 28 33 36 41 35 30 30 30 30 32 41 41 44 42 40 39 36 36 36 32 30 28 25 22 27 16 20 18 18 15 12 12 16 14 14 13 15 19 22 23
23 26 29 26 24 28 34 31 34 33 33 28 31 30 39 47 42 40 38 38 37 37 34 30 26 26 23 25 20 20 16 16 13 14 21 17 14 8 8 7 12 15 17
23 26 29 22 23 28 30 31 27 29 28 27 33 32 34 39 38 35 35 35 35 33 31 27 28 26 23 23 23 21 17 11 10 21 17 12 13 6 9 8 8 8 11
23 21 22 20 22 28 27 33 32 31 26 25 27 29 31 35 41 41 37 35 32 31 29 29 28 25 23 23 20 19 11 8 22 21 16 15 13 11 11 9 11 10 12
20 20 20 26 29 25 25 31 32 29 41 37 31 41 39 33 34 44 44 40 39 35 36 32 28 25 24 24 18 16 16 21 20 17 15 16 16 14 12 12 18 19 17
16 14 19 24 25 26 24 24 29 38 37 42 41 42 35 38 38 40 44 36 39 39 32 31 28 27 29 23 21 18 17 18 16 13 15 18 17 15 14 16 18 16 14
16 19 20 24 23 23 22 22 16 29 36 39 45 43 47 48 39 38 38 37 35 36 28 25 27 30 28 22 22 19 18 19 16 15 15 14 15 14 14 15 19 19 16
23 25 22 23 25 24 23 21 24 26 24 24 39 45 49 46 40 39 39 38 31 27 29 27 28 30 26 24 24 22 23 20 19 17 15 15 15 17 15 14 15 21 18
23 27 26 23 24 23 26 26 26 29 28 29 32 40 50 44 38 37 41 40 32 29 29 28 27 27 26 26 25 25 22 20 17 16 14 14 18 13 13 13 14 20 17
23 26 26 28 23 23 28 29 28 31 31 31 31 36 45 49 42 44 32 29 33 34 22 28 26 22 29 29 30 24 24 20 20 17 15 12 16 17 17 16 13 16 15
22 27 28 26 28 24 29 30 30 31 29 30 28 33 41 38 35 32 29 32 35 30 23 30 26 24 28 30 28 24 24 24 20 18 16 12 16 19 18 16 15 14 12
23 23 24 24 23 24 23 27 29 31 34 31 31 34 38 29 30 26 27 30 36 26 26 29 30 27 27 28 27 26 24 23 20 19 17 15 15 16 16 13 12 13 11
23 20 18 19 22 25 21 24 24 24 25 29 36 39 32 28 28 26 26 31 29 24 32 31 28 25 25 23 20 18 23 21 21 19 19 16 16 16 15 16 13 10 9
23 22 21 19 21 22 23 22 22 28 29 32 34 33 28 28 31 25 28 27 26 30 29 28 26 24 23 20 20 20 21 21 20 18 17 15 16 14 17 16 9 8 12
19 21 21 21 21 21 23 24 26 28 29 33 33 30 31 30 32 26 28 31 32 31 28 26 25 21 23 24 23 21 24 23 20 17 15 16 16 16 17 14 13 12 12
18 20 20 22 20 23 23 26 26 28 31 31 31 31 31 32 32 28 29 29 31 29 26 24 22 23 23 22 21 26 26 23 20 16 15 17 15 15 15 15 13 12 11
Wind_Direction
290 308 266 254 249 228 201 178 174 185 190 200 203 186 180 177 176 171 171 167 164 162 158 146 136 139 146 138 145 131 123 107 117 125 128 122 75 55 38 45 125 162 130
307 310 292 262 250 214 187 175 182 185 175 194 194 185 180 176 173 168 166 165 165 161 159 148 145 143 147 139 147 128 119 125 131 131 128 89 73 62 54 55 112 108 122
303 319 316 284 247 224 177 178 186 182 181 197 195 183 181 176 173 167 170 167 168 166 168 160 153 158 144 144 146 129 134 139 134 133 113 89 80 74 69 76 74 79 136
314 335 318 281 254 237 191 178 191 195 186 196 184 179 179 175 173 168 166 169 163 156 159 153 152 157 153 149 146 153 150 161 136 130 107 89 79 75 67 46 63 57 121
321 325 310 287 245 252 219 182 184 199 179 183 174 175 175 174 169 169 167 168 158 151 157 157 158 163 155 156 155 149 142 120 123 117 101 86 71 68 37 14 23 16 42
318 303 313 262 283 256 229 184 180 196 173 167 165 168 170 166 173 172 169 163 158 156 151 152 150 155 158 158 157 154 140 132 121 110 101 93 81 71 39 10 40 68 11
306 298 295 267 256 259 238 194 176 174 169 166 166 169 167 164 175 174 169 163 159 159 157 154 152 155 158 149 139 129 122 117 112 118 109 105 93 59 40 52 101 86 64
286 296 268 242 248 220 239 203 173 165 162 160 164 166 164 170 173 173 166 163 160 162 163 161 155 151 148 145 134 124 116 107 113 109 100 95 87 75 65 94 117 90 66
279 284 283 229 247 231 234 228 198 165 164 165 168 167 165 166 168 169 166 164 160 163 160 155 156 150 146 148 137 129 123 115 113 112 105 96 81 79 68 98 72 82 67
280 282 288 233 230 236 233 213 186 172 169 165 164 169 170 162 162 169 170 162 158 159 171 163 162 159 162 164 148 146 135 137 135 135 131 119 89 87 79 80 79 76 96
282 283 283 265 231 213 212 208 181 171 162 158 153 166 171 168 164 172 172 164 158 156 158 163 167 166 161 166 155 158 149 149 146 142 140 142 113 96 91 89 82 79 86
280 287 286 262 228 201 187 176 176 164 157 148 142 148 160 165 169 173 171 172 169 162 161 165 166 168 164 160 162 157 154 164 161 139 132 144 142 124 126 116 98 86 77
273 268 274 234 198 181 165 161 166 165 157 152 151 150 150 158 167 169 173 174 175 168 168 166 159 159 155 156 158 161 160 164 155 144 133 121 136 114 175 163 133 108 91
264 278 280 202 180 172 171 159 166 163 150 148 149 144 160 159 173 170 169 169 172 167 163 160 157 155 155 156 160 159 167 172 152 142 145 140 129 113 123 173 172 158 112
265 278 243 185 178 165 168 168 168 174 170 162 161 160 162 166 173 169 168 167 168 160 154 151 151 156 156 154 152 146 132 139 140 144 156 156 149 132 119 120 116 111 107
255 242 200 173 169 162 155 163 172 173 169 170 168 163 160 161 167 170 171 170 166 159 153 151 153 159 158 153 153 155 147 143 143 142 139 141 147 137 136 127 128 117 104
232 182 167 168 158 149 158 158 127 152 167 168 158 155 160 158 158 163 166 163 163 162 152 153 155 164 165 165 160 157 150 150 153 142 140 138 136 130 129 137 133 125 110
181 170 167 156 150 155 156 143 138 142 135 143 157 157 156 159 161 161 157 158 156 163 156 159 164 171 177 174 166 155 143 140 147 146 144 149 137 131 127 115 138 136 126
166 166 163 154 153 159 153 144 147 141 144 147 147 157 161 159 163 168 168 164 161 163 166 168 179 181 181 172 164 161 160 150 150 151 148 140 155 152 146 143 125 139 134
164 162 155 154 156 160 154 148 148 145 148 151 155 157 159 161 163 166 171 168 164 165 169 180 179 180 177 168 159 156 156 158 155 156 152 156 154 163 146 144 146 144 146
144 150 154 157 155 164 158 154 153 150 153 154 156 163 167 168 166 168 166 170 168 164 170 173 170 165 162 158 155 155 157 153 156 158 160 144 156 147 142 134 144 140 135
142 147 152 152 156 153 164 155 157 157 154 149 148 161 164 165 166 167 170 172 166 167 175 172 170 168 164 160 158 158 158 160 162 164 167 159 149 147 153 152 146 134 142
136 136 139 142 147 140 138 141 146 145 146 143 148 154 160 165 161 157 166 172 171 172 166 167 164 159 162 165 168 170 164 167 164 167 165 165 164 160 156 149 149 146 136
139 137 138 137 140 140 140 143 140 141 143 142 146 153 157 158 157 152 163 170 166 159 161 163 165 164 165 165 169 168 166 163 164 167 168 168 159 160 156 152 153 156 153
139 139 138 138 137 136 134 135 140 143 145 146 149 148 150 154 159 158 168 167 157 159 156 156 157 160 164 161 161 163 163 158 158 165 174 166 156 151 146 147 147 141 138
126 131 132 141 136 141 139 144 146 150 149 151 148 149 154 158 161 169 167 164 156 152 150 153 161 162 163 158 156 160 156 158 156 154 154 159 155 158 156 151 140 130 144
Height
687 683 682 683 686 689 692 696 702 710 715 724 731 735 736 739 743 747 752 756 761 765 771 772 776 779 786 786 789 790 790 793 798 803 805 807 805 805 804 802 802 802 802
682 679 677 678 682 685 686 690 700 707 705 720 726 731 734 737 741 742 750 754 759 764 769 772 774 779 784 787 790 790 791 794 797 801 805 806 805 805 804 802 803 803 801
679 675 672 673 680 682 684 689 694 699 702 713 718 721 728 732 737 738 747 752 758 763 767 771 773 780 782 785 790 790 792 794 796 799 804 805 804 803 803 804 805 803 802
676 671 667 668 674 677 681 682 693 697 698 707 712 714 723 728 731 736 742 753 758 760 768 770 773 779 780 785 789 791 792 794 795 799 802 803 803 804 803 805 805 804 803
676 669 664 663 665 670 675 677 687 696 691 699 703 715 722 728 730 735 739 751 755 758 765 769 774 779 781 785 787 790 791 793 794 799 802 803 804 805 806 806 805 803 803
675 666 661 660 661 664 671 672 676 687 690 697 703 709 716 724 732 735 740 746 751 755 761 768 773 778 782 785 788 790 792 793 794 797 801 803 805 805 805 805 804 803 804
669 664 657 654 656 654 667 667 673 679 684 691 697 706 714 723 731 735 740 745 748 755 762 766 770 777 782 786 788 790 792 795 795 796 800 802 803 805 805 805 805 805 806
665 661 656 652 650 654 660 660 664 674 680 685 696 705 708 719 726 735 738 744 750 758 762 766 770 776 780 787 787 790 793 796 796 799 802 804 805 806 806 807 807 805 806
658 657 652 651 651 649 655 659 663 670 676 685 693 701 708 715 720 731 737 745 752 758 761 766 772 776 781 787 787 791 795 797 799 801 804 807 806 806 808 807 806 804 807
653 651 650 647 644 639 644 655 663 667 675 682 687 694 704 714 718 728 737 746 749 756 761 766 773 777 781 786 788 792 794 798 798 801 804 808 808 808 810 809 809 807 808
647 645 643 641 642 643 647 652 660 667 673 680 683 692 701 709 720 730 736 744 747 753 759 766 772 775 781 784 788 792 794 797 798 801 805 809 810 810 811 813 813 811 811
641 638 636 634 635 635 638 646 654 660 666 676 683 694 701 712 720 730 735 741 748 750 757 765 770 773 779 782 786 791 794 797 799 801 804 807 809 811 812 813 814 814 815
633 631 629 627 629 632 635 640 653 661 664 673 679 692 701 714 723 732 737 743 748 752 758 764 769 772 777 782 785 789 792 795 797 801 804 806 807 809 812 814 816 817 817
625 623 622 622 628 629 635 636 646 652 661 672 678 688 698 703 720 727 736 744 749 752 757 765 768 773 777 781 784 787 791 793 795 799 803 805 806 808 811 813 814 816 818
616 615 615 618 621 626 631 634 641 648 648 660 670 677 692 703 715 722 729 737 743 748 756 762 766 771 775 779 783 786 789 792 795 799 802 803 806 808 811 813 814 816 817
606 606 607 612 617 624 630 636 641 644 652 657 670 679 690 699 713 722 731 737 743 749 756 758 763 768 772 776 780 783 788 791 795 799 800 802 806 809 811 813 815 817 818
600 603 606 613 615 621 629 634 637 648 656 666 669 677 689 700 714 722 730 738 745 751 755 756 758 765 771 776 779 783 785 790 795 798 800 803 806 809 811 814 815 816 819
595 599 606 609 614 622 629 632 636 646 659 669 676 684 695 705 713 722 729 740 748 752 752 755 759 765 771 774 777 781 785 789 794 797 800 803 806 808 811 813 814 816 818
593 599 604 608 616 623 629 633 641 649 657 670 681 692 698 708 716 726 733 735 740 746 750 754 760 765 769 771 774 779 784 788 793 797 800 803 806 809 811 814 815 816 818
592 596 603 610 618 624 626 633 642 649 661 669 679 689 698 707 717 724 729 733 735 740 747 753 758 763 766 769 773 777 782 787 792 796 799 803 805 809 811 813 815 816 818
592 598 603 610 616 624 625 631 641 646 658 668 678 687 694 705 713 718 723 728 732 738 745 751 756 761 766 768 771 776 781 787 791 795 799 803 805 808 811 813 815 816 818
593 599 605 610 619 624 631 634 642 648 656 666 677 691 702 709 715 720 724 727 731 738 743 748 754 759 763 767 771 775 779 785 790 794 799 802 805 808 810 812 815 816 818
596 602 608 613 619 625 634 639 646 652 660 667 675 687 699 708 712 717 723 728 732 737 742 748 754 758 763 767 771 775 778 784 789 795 798 801 805 808 811 813 815 817 819
599 604 611 617 624 629 635 642 647 654 662 670 679 689 698 706 712 718 722 729 733 739 743 747 753 759 764 767 771 775 780 784 789 795 799 802 805 807 809 813 816 817 819
603 609 615 620 625 630 637 644 650 657 665 671 680 689 697 705 713 720 725 730 733 739 744 749 754 759 763 767 771 775 780 785 790 795 799 802 805 808 810 814 816 819 820
609 613 617 623 629 635 640 647 653 660 666 674 681 690 698 706 713 719 726 730 735 740 746 751 754 759 763 768 772 777 779 785 790 796 799 802 805 808 811 814 817 819 820